When you browse on this site, cookies collect data to enhance your experience and personalize the content and advertising you see.
Visit our Privacy Policy to learn more. By continuing to use the site, you agree to this use of cookies and data.
  • In Slovakia
  • List of Countries
  • For 7 days
  • Water Temperature
  • Weather Map
  • Weather Widgets
  • user-avatar
    Login

    Hourly Weather Uige

    Today, 22 August, Thursday

    Time Temperature Precipitation Wind Pressure Humidity
    00:00 +22°C° 0 mm 1 mps 693 mmHg 78%
    01:00 +21°C° 0 mm 1 mps 693 mmHg 85%
    02:00 +20°C° 0 mm 1 mps 692 mmHg 87%
    03:00 +20°C° 0 mm 1 mps 692 mmHg 89%
    04:00 +20°C° 0 mm 1 mps 692 mmHg 91%
    05:00 +20°C° 0 mm 1 mps 692 mmHg 87%
    06:00 +21°C° 0 mm 1 mps 693 mmHg 84%
    07:00 +21°C° 0 mm 1 mps 693 mmHg 80%
    08:00 +25°C° 0 mm 1 mps 694 mmHg 63%
    09:00 +28°C° 0 mm 1 mps 694 mmHg 47%
    10:00 +32°C° 0 mm 1 mps 695 mmHg 31%
    11:00 +34°C° 0 mm 1 mps 694 mmHg 25%
    12:00 +36°C° 0 mm 1 mps 694 mmHg 19%
    13:00 +39°C° 0 mm 1 mps 693 mmHg 13%
    14:00 +39°C° 0 mm 1 mps 692 mmHg 12%
    15:00 +37°C° 0 mm 1 mps 692 mmHg 12%
    16:00 +37°C° 0 mm 1 mps 691 mmHg 12%
    17:00 +34°C° 0 mm 1 mps 691 mmHg 16%
    18:00 +31°C° 0 mm 1 mps 691 mmHg 19%
    19:00 +28°C° 0 mm 2 mps 692 mmHg 23%
    20:00 +27°C° 0 mm 1 mps 692 mmHg 38%
    21:00 +25°C° 0 mm 1 mps 692 mmHg 52%
    22:00 +23°C° 0 mm 1 mps 692 mmHg 67%
    23:00 +22°C° 0 mm 1 mps 692 mmHg 73%

    Tomorrow, 23 August, Friday

    Time Temperature Precipitation Wind Pressure Humidity
    00:00 +21°C° 0 mm 1 mps 692 mmHg 80%
    01:00 +20°C° 0 mm 1 mps 692 mmHg 86%
    02:00 +19°C° 0 mm 1 mps 692 mmHg 89%
    03:00 +19°C° 0 mm 1 mps 691 mmHg 92%
    04:00 +18°C° 0 mm 1 mps 691 mmHg 95%
    05:00 +17°C° 0 mm 0 mps 692 mmHg 91%
    06:00 +17°C° 0 mm 0 mps 693 mmHg 88%
    07:00 +18°C° 0 mm 0 mps 694 mmHg 84%
    08:00 +24°C° 0 mm 1 mps 694 mmHg 66%
    09:00 +28°C° 0 mm 1 mps 695 mmHg 49%
    10:00 +32°C° 0 mm 1 mps 695 mmHg 31%
    11:00 +34°C° 0 mm 1 mps 695 mmHg 26%
    12:00 +36°C° 0 mm 1 mps 694 mmHg 21%
    13:00 +40°C° 0 mm 1 mps 693 mmHg 15%
    14:00 +39°C° 0 mm 1 mps 693 mmHg 15%
    15:00 +37°C° 0 mm 1 mps 692 mmHg 15%
    16:00 +37°C° 0 mm 1 mps 691 mmHg 14%
    17:00 +34°C° 0 mm 1 mps 691 mmHg 18%
    18:00 +31°C° 0 mm 1 mps 691 mmHg 22%
    19:00 +28°C° 0 mm 2 mps 691 mmHg 26%
    20:00 +26°C° 0 mm 1 mps 692 mmHg 38%
    21:00 +24°C° 0 mm 1 mps 692 mmHg 49%
    22:00 +22°C° 0 mm 1 mps 693 mmHg 60%
    23:00 +21°C° 0 mm 1 mps 693 mmHg 67%

    Day after tomorrow, 24 August, Saturday

    Time Temperature Precipitation Wind Pressure Humidity
    00:00 +20°C° 0 mm 1 mps 693 mmHg 73%
    01:00 +19°C° 0 mm 1 mps 692 mmHg 80%
    02:00 +19°C° 0 mm 1 mps 692 mmHg 84%
    03:00 +18°C° 0 mm 1 mps 692 mmHg 88%
    04:00 +18°C° 0 mm 1 mps 692 mmHg 92%
    05:00 +18°C° 0 mm 1 mps 692 mmHg 89%
    06:00 +19°C° 0 mm 1 mps 693 mmHg 86%
    07:00 +19°C° 0 mm 1 mps 694 mmHg 83%
    08:00 +22°C° 0 mm 1 mps 694 mmHg 71%
    09:00 +24°C° 0 mm 1 mps 694 mmHg 59%
    10:00 +27°C° 0 mm 1 mps 695 mmHg 46%
    11:00 +30°C° 0 mm 1 mps 694 mmHg 39%
    12:00 +33°C° 0 mm 1 mps 694 mmHg 31%
    13:00 +35°C° 0 mm 1 mps 693 mmHg 24%
    14:00 +36°C° 0 mm 2 mps 692 mmHg 23%
    15:00 +36°C° 0 mm 2 mps 692 mmHg 23%
    16:00 +35°C° 0 mm 2 mps 691 mmHg 22%
    17:00 +32°C° 0 mm 2 mps 691 mmHg 31%
    18:00 +29°C° 0 mm 2 mps 691 mmHg 40%
    19:00 +26°C° 0 mm 2 mps 691 mmHg 49%
    20:00 +25°C° 0 mm 1 mps 692 mmHg 55%
    21:00 +23°C° 0 mm 1 mps 692 mmHg 61%
    22:00 +22°C° 0 mm 1 mps 693 mmHg 66%
    23:00 +21°C° 0 mm 1 mps 692 mmHg 70%

    25 August, Sunday

    Time Temperature Precipitation Wind Pressure Humidity
    00:00 +20°C° 0 mm 1 mps 692 mmHg 74%
    01:00 +20°C° 0 mm 1 mps 692 mmHg 78%
    02:00 +19°C° 0 mm 1 mps 692 mmHg 82%
    03:00 +18°C° 0 mm 1 mps 692 mmHg 86%
    04:00 +18°C° 0 mm 1 mps 691 mmHg 90%
    05:00 +18°C° 0 mm 1 mps 692 mmHg 89%
    06:00 +16°C° 0 mm 0 mps 692 mmHg 87%
    07:00 +17°C° 0 mm 0 mps 693 mmHg 85%
    08:00 +22°C° 0 mm 1 mps 693 mmHg 71%
    09:00 +25°C° 0 mm 1 mps 694 mmHg 56%
    10:00 +29°C° 0 mm 2 mps 695 mmHg 41%
    11:00 +31°C° 0 mm 2 mps 694 mmHg 36%
    12:00 +32°C° 0 mm 2 mps 693 mmHg 31%
    13:00 +35°C° 0 mm 2 mps 693 mmHg 26%
    14:00 +35°C° 0 mm 2 mps 692 mmHg 26%
    15:00 +35°C° 0 mm 2 mps 691 mmHg 26%
    16:00 +34°C° 0 mm 2 mps 691 mmHg 26%
    17:00 +31°C° 0 mm 2 mps 691 mmHg 29%
    18:00 +29°C° 0 mm 1 mps 691 mmHg 33%
    19:00 +27°C° 0 mm 1 mps 691 mmHg 37%
    20:00 +25°C° 0 mm 1 mps 692 mmHg 44%
    21:00 +24°C° 0 mm 1 mps 692 mmHg 50%
    22:00 +22°C° 0 mm 1 mps 693 mmHg 56%
    23:00 +21°C° 0 mm 1 mps 693 mmHg 63%

    26 August, Monday

    Time Temperature Precipitation Wind Pressure Humidity
    00:00 +20°C° 0 mm 1 mps 692 mmHg 69%
    01:00 +20°C° 0 mm 1 mps 692 mmHg 75%
    02:00 +19°C° 0 mm 1 mps 692 mmHg 78%
    03:00 +19°C° 0 mm 1 mps 692 mmHg 81%
    04:00 +18°C° 0 mm 1 mps 692 mmHg 84%
    05:00 +18°C° 0 mm 1 mps 693 mmHg 83%
    06:00 +19°C° 0 mm 1 mps 693 mmHg 81%
    07:00 +19°C° 0 mm 1 mps 694 mmHg 79%
    08:00 +22°C° 0 mm 1 mps 694 mmHg 65%
    09:00 +25°C° 0 mm 2 mps 695 mmHg 50%
    10:00 +28°C° 0 mm 2 mps 695 mmHg 35%
    11:00 +29°C° 0 mm 2 mps 695 mmHg 32%
    12:00 +31°C° 0 mm 2 mps 694 mmHg 29%
    13:00 +34°C° 0 mm 2 mps 693 mmHg 26%
    14:00 +34°C° 0 mm 2 mps 693 mmHg 26%
    15:00 +34°C° 0 mm 2 mps 692 mmHg 26%
    16:00 +32°C° 0 mm 2 mps 692 mmHg 26%
    17:00 +30°C° 0 mm 2 mps 692 mmHg 30%
    18:00 +28°C° 0 mm 2 mps 692 mmHg 34%
    19:00 +26°C° 0 mm 2 mps 692 mmHg 38%
    20:00 +25°C° 0 mm 1 mps 693 mmHg 43%
    21:00 +23°C° 0 mm 1 mps 693 mmHg 47%
    22:00 +20°C° 0 mm 0 mps 693 mmHg 52%
    23:00 +21°C° 0 mm 1 mps 693 mmHg 55%

    27 August, Tuesday

    Time Temperature Precipitation Wind Pressure Humidity
    00:00 +20°C° 0 mm 1 mps 693 mmHg 59%
    01:00 +20°C° 0 mm 1 mps 693 mmHg 62%
    02:00 +19°C° 0 mm 1 mps 693 mmHg 65%
    03:00 +19°C° 0 mm 1 mps 692 mmHg 68%
    04:00 +18°C° 0 mm 1 mps 692 mmHg 71%
    05:00 +18°C° 0 mm 1 mps 693 mmHg 70%
    06:00 +19°C° 0 mm 1 mps 694 mmHg 69%
    07:00 +19°C° 0 mm 1 mps 694 mmHg 68%
    08:00 +22°C° 0 mm 1 mps 695 mmHg 55%
    09:00 +26°C° 0 mm 2 mps 695 mmHg 42%
    10:00 +29°C° 0 mm 2 mps 696 mmHg 29%
    11:00 +31°C° 0 mm 2 mps 695 mmHg 27%
    12:00 +32°C° 0 mm 2 mps 694 mmHg 24%
    13:00 +35°C° 0 mm 2 mps 694 mmHg 21%
    14:00 +35°C° 0 mm 2 mps 693 mmHg 21%
    15:00 +35°C° 0 mm 2 mps 693 mmHg 21%
    16:00 +35°C° 0 mm 2 mps 692 mmHg 21%
    17:00 +31°C° 0 mm 2 mps 692 mmHg 26%
    18:00 +29°C° 0 mm 2 mps 692 mmHg 31%
    19:00 +27°C° 0 mm 2 mps 692 mmHg 35%
    20:00 +25°C° 0 mm 2 mps 692 mmHg 43%
    21:00 +23°C° 0 mm 1 mps 692 mmHg 50%
    22:00 +21°C° 0 mm 1 mps 692 mmHg 57%
    23:00 +21°C° 0 mm 1 mps 692 mmHg 62%
    Show more